Date String (YYYY-MM-DD hh:mm:ss) UTC,Instrument flags,Ambient pressure (hPa),Sample flow (lpm),Bypass flow (lpm),Sample temperature (°C),Ambient temperature (°C),ASC tube jacket temperature (°C),LED temperature (°C),Box temperature (°C),Sample RH (%),Span deviation,Mass concentration (μg/m³),Mass concentration (μg/m³),Mass concentration (μg/m³)
DateTimeUTC,F1_M11,P_M11,Q1_M11,Q2_M11,T1_M11,T2_M11,T3_M11,T4_M11,T5_M11,U1_M11,ZSPAN_M11,X0_M11,X2_M11,X1_M11
2022-02-10 12:00:00,,0827.5,5.00,0.00,22.4,22.5,00.0,31.4,24.3,14.4,0000.0,0007.25,0003.28,0002.62
2022-02-10 12:01:00,,0827.5,5.01,0.00,22.5,23.0,00.0,31.4,24.5,14.4,0000.0,0007.10,0003.23,0002.57
2022-02-10 12:02:00,,0827.5,5.00,0.00,22.6,22.9,00.0,31.4,24.6,14.3,0000.0,0007.14,0003.19,0002.53
2022-02-10 12:03:00,,0827.5,5.00,0.00,22.6,22.8,00.0,31.4,24.5,14.1,0000.0,0007.05,0003.16,0002.46
2022-02-10 12:04:00,,0827.4,4.99,0.00,22.6,22.6,00.0,31.4,24.5,14.0,0000.0,0006.70,0003.10,0002.38
2022-02-10 12:05:00,,0827.4,5.01,0.00,22.6,22.4,00.0,31.4,24.4,14.1,0000.0,0005.34,0003.01,0002.30
2022-02-10 12:06:00,,0827.5,5.00,0.00,22.6,22.3,00.0,31.5,24.4,14.2,0000.0,0005.65,0002.96,0002.25
2022-02-10 12:07:00,,0827.5,4.99,0.00,22.5,22.2,00.0,31.5,24.3,14.2,0000.0,0005.54,0002.91,0002.21
2022-02-10 12:08:00,,0827.5,5.01,0.00,22.5,22.1,00.0,31.5,24.3,14.2,0000.0,0005.34,0002.82,0002.15
2022-02-10 12:09:00,,0827.5,4.99,0.00,22.5,22.0,00.0,31.5,24.3,14.2,0000.0,0005.18,0002.74,0002.10
2022-02-10 12:10:00,,0827.6,5.01,0.00,22.5,22.0,00.0,31.5,24.3,14.2,0000.0,0005.19,0002.71,0002.09
2022-02-10 12:11:00,,0827.5,4.99,0.00,22.5,21.9,00.0,31.5,24.3,14.1,0000.0,0005.02,0002.67,0002.08
2022-02-10 12:12:00,,0827.4,5.02,0.00,22.5,21.8,00.0,31.5,24.2,14.2,0000.0,0004.84,0002.60,0002.03
2022-02-10 12:13:00,,0827.4,4.99,0.00,22.5,21.8,00.0,31.4,24.2,14.4,0000.0,0004.77,0002.54,0001.98
2022-02-10 12:14:00,,0827.4,5.00,0.00,22.4,21.8,00.0,31.4,24.2,14.5,0000.0,0004.68,0002.49,0001.94
2022-02-10 12:15:00,,0827.3,5.01,0.00,22.4,21.8,00.0,31.4,24.2,14.4,0000.0,0004.60,0002.45,0001.93
2022-02-10 12:16:00,,0827.2,4.99,0.00,22.4,21.7,00.0,31.4,24.2,14.3,0000.0,0004.29,0002.38,0001.92
2022-02-10 12:17:00,,0827.2,5.02,0.00,22.4,21.7,00.0,31.4,24.1,14.4,0000.0,0003.72,0002.34,0001.89
2022-02-10 12:18:00,,0827.2,4.99,0.00,22.4,21.7,00.0,31.4,24.1,14.4,0000.0,0003.93,0002.26,0001.84
2022-02-10 12:19:00,,0827.3,5.02,0.00,22.4,21.7,00.0,31.4,24.1,14.4,0000.0,0003.91,0002.26,0001.83
2022-02-10 12:20:00,,0827.3,4.99,0.00,22.4,21.7,00.0,31.4,24.1,14.4,0000.0,0003.70,0002.19,0001.78
2022-02-10 12:21:00,,0827.2,5.00,0.00,22.4,21.7,00.0,31.4,24.1,14.4,0000.0,0004.18,0002.12,0001.74
2022-02-10 12:22:00,,0827.3,5.00,0.00,22.3,21.7,00.0,31.4,24.1,14.4,0000.0,0004.29,0002.07,0001.70
2022-02-10 12:23:00,,0827.5,4.99,0.00,22.3,21.6,00.0,31.4,24.1,14.2,0000.0,0004.35,0002.04,0001.67
2022-02-10 12:24:00,,0827.4,5.01,0.00,22.3,21.6,00.0,31.4,24.0,14.2,0000.0,0004.26,0002.01,0001.65
2022-02-10 12:25:00,,0827.6,4.99,0.00,22.3,21.6,00.0,31.4,24.0,14.2,0000.0,0004.31,0002.00,0001.62
2022-02-10 12:26:00,,0827.6,5.01,0.00,22.3,21.6,00.0,31.3,24.0,14.2,0000.0,0004.54,0001.96,0001.58
2022-02-10 12:27:00,,0827.6,4.98,0.00,22.3,21.6,00.0,31.3,24.0,14.1,0000.0,0005.29,0001.95,0001.55
2022-02-10 12:28:00,,0827.2,5.01,0.00,22.3,21.7,00.0,31.3,24.0,13.5,0000.0,0005.22,0001.89,0001.49
2022-02-10 12:29:00,,0827.1,5.00,0.00,22.4,22.3,00.0,31.4,24.2,13.4,0000.0,0004.85,0001.84,0001.44
2022-02-10 12:30:00,,0827.1,5.00,0.00,22.5,23.0,00.0,31.4,24.5,13.4,0000.0,0005.08,0001.76,0001.41
2022-02-10 12:31:00,,0827.1,4.99,0.00,22.6,23.1,00.0,31.4,24.6,13.2,0000.0,0005.21,0001.73,0001.38
2022-02-10 12:32:00,,0827.1,5.01,0.00,22.6,22.9,00.0,31.5,24.6,13.0,0000.0,0004.63,0001.75,0001.36
2022-02-10 12:33:00,,0827.0,5.01,0.00,22.6,22.7,00.0,31.5,24.5,12.8,0000.0,0004.46,0001.74,0001.34
2022-02-10 12:34:00,,0827.0,4.99,0.00,22.6,22.5,00.0,31.5,24.5,12.6,0000.0,0004.30,0001.70,0001.31
2022-02-10 12:35:00,,0827.0,5.00,0.00,22.6,22.4,00.0,31.5,24.5,12.6,0000.0,0004.41,0001.64,0001.27
2022-02-10 12:36:00,,0827.0,4.99,0.00,22.6,22.3,00.0,31.5,24.4,12.6,0000.0,0004.62,0001.59,0001.26
2022-02-10 12:37:00,,0827.0,5.01,0.00,22.6,22.2,00.0,31.5,24.4,12.6,0000.0,0004.28,0001.51,0001.23
2022-02-10 12:38:00,,0827.0,4.99,0.00,22.6,22.1,00.0,31.5,24.4,12.4,0000.0,0003.50,0001.47,0001.20
2022-02-10 12:39:00,,0827.0,5.00,0.00,22.6,22.1,00.0,31.5,24.4,12.4,0000.0,0003.30,0001.43,0001.18
2022-02-10 12:40:00,,0827.0,4.99,0.00,22.6,22.0,00.0,31.5,24.4,12.3,0000.0,0003.27,0001.42,0001.18
2022-02-10 12:41:00,,0827.1,5.00,0.00,22.5,22.0,00.0,31.5,24.4,12.1,0000.0,0003.05,0001.42,0001.15
2022-02-10 12:42:00,,0827.0,5.00,0.00,22.5,21.9,00.0,31.5,24.3,12.2,0000.0,0002.98,0001.41,0001.14
2022-02-10 12:43:00,,0827.0,5.01,0.00,22.5,21.9,00.0,31.5,24.3,12.1,0000.0,0003.53,0001.37,0001.13
2022-02-10 12:44:00,,0827.0,4.99,0.00,22.5,21.8,00.0,31.5,24.2,12.1,0000.0,0003.60,0001.40,0001.11
2022-02-10 12:45:00,,0827.0,5.01,0.00,22.4,21.7,00.0,31.5,24.1,12.3,0000.0,0003.60,0001.41,0001.11
2022-02-10 12:46:00,,0826.9,4.99,0.00,22.4,21.6,00.0,31.5,24.0,12.9,0000.0,0003.51,0001.46,0001.12
2022-02-10 12:47:00,,0826.9,4.99,0.00,22.3,21.6,00.0,31.4,24.0,13.5,0000.0,0003.29,0001.50,0001.14
2022-02-10 12:48:00,,0826.8,5.00,0.00,22.3,21.5,00.0,31.4,23.9,13.5,0000.0,0003.47,0001.54,0001.16
2022-02-10 12:49:00,,0826.9,4.99,0.00,22.2,21.4,00.0,31.4,23.8,13.5,0000.0,0003.53,0001.57,0001.17
2022-02-10 12:50:00,,0826.9,5.02,0.00,22.2,21.3,00.0,31.4,23.8,13.5,0000.0,0003.55,0001.59,0001.18
2022-02-10 12:51:00,,0826.8,5.00,0.00,22.1,21.3,00.0,31.3,23.8,13.6,0000.0,0003.61,0001.61,0001.20
2022-02-10 12:52:00,,0826.7,5.00,0.00,22.1,21.3,00.0,31.3,23.8,13.6,0000.0,0003.56,0001.62,0001.22
2022-02-10 12:53:00,,0826.7,5.01,0.00,22.1,21.3,00.0,31.3,23.8,13.4,0000.0,0003.49,0001.63,0001.22
2022-02-10 12:54:00,,0826.7,4.99,0.00,22.1,21.3,00.0,31.3,23.8,12.7,0000.0,0002.84,0001.61,0001.21
2022-02-10 12:55:00,,0826.7,5.01,0.00,22.0,21.2,00.0,31.2,23.7,13.3,0000.0,0002.71,0001.60,0001.22
2022-02-10 12:56:00,,0826.7,4.99,0.00,22.0,21.3,00.0,31.2,23.7,13.9,0000.0,0002.62,0001.58,0001.26
2022-02-10 12:57:00,,0826.7,5.02,0.00,22.1,21.8,00.0,31.3,23.9,14.3,0000.0,0003.09,0001.60,0001.29
2022-02-10 12:58:00,,0826.7,5.00,0.00,22.2,22.6,00.0,31.3,24.2,13.9,0000.0,0003.11,0001.59,0001.29
2022-02-10 12:59:00,,0826.7,4.99,0.00,22.3,22.9,00.0,31.3,24.3,12.3,0000.0,0003.10,0001.60,0001.26
